Temperature
19 18 19 19 19 19 19 19 19 19 19 19 19 19 19 19 19 19 18 18 18 18 18 18 18 18 18 18 18 18 18 18 18 18 18 18 18 18 18 18 18 18 18
19 18 19 19 19 19 19 19 19 19 19 19 19 19 19 19 19 19 18 18 18 18 18 18 18 18 18 18 18 18 18 18 18 18 18 18 18 18 18 18 18 18 18
19 18 19 19 19 19 19 19 19 19 19 19 19 19 19 19 19 18 18 18 18 18 18 18 18 18 18 18 18 18 18 18 18 18 18 18 18 18 18 18 18 18 18
19 18 18 19 19 19 19 19 19 19 19 19 19 19 19 19 18 18 18 18 18 18 18 18 18 18 18 18 18 18 18 18 18 18 18 18 17 18 18 18 18 18 18
19 18 18 19 19 19 19 19 19 19 19 19 19 19 19 18 18 19 18 18 18 18 18 18 18 18 18 18 18 18 18 18 18 18 18 18 18 18 18 18 18 18 18
19 18 18 19 19 19 19 19 19 19 19 19 19 19 18 18 18 18 18 18 18 18 18 18 18 18 18 18 18 18 18 18 18 18 18 18 18 18 18 18 18 17 17
19 19 19 19 19 19 19 19 19 19 19 19 19 19 18 18 18 18 18 18 18 18 18 18 18 18 18 18 18 18 18 18 18 18 18 18 18 18 18 18 18 17 17
19 19 19 19 19 19 19 19 19 19 19 19 19 18 18 18 18 18 18 18 18 18 18 18 18 18 18 18 18 18 18 18 18 18 18 18 18 18 18 18 18 17 17
19 19 19 19 19 19 19 19 19 19 18 18 18 18 18 18 18 18 18 18 18 18 18 18 18 18 18 18 18 18 18 18 18 18 18 17 18 18 18 18 17 17 17
19 19 19 19 18 18 19 19 19 19 18 18 18 18 18 18 18 18 18 18 18 18 18 18 18 18 18 18 18 18 18 18 18 18 18 18 18 18 18 18 18 17 17
19 19 19 19 19 19 19 18 18 19 18 18 18 18 18 18 18 18 18 18 18 18 18 18 18 18 18 18 18 18 18 18 18 18 18 18 18 18 18 18 17 17 17
19 19 19 19 19 19 19 18 18 18 18 18 18 18 18 18 18 18 18 18 18 18 18 18 18 18 18 18 18 18 18 18 18 18 18 18 18 18 18 18 17 17 17
20 19 19 19 19 19 19 18 18 18 18 18 18 18 18 18 18 18 18 18 18 18 18 18 18 18 18 18 18 18 18 18 18 18 18 18 18 18 18 18 18 17 17
20 20 19 19 19 19 19 18 18 18 18 18 18 18 18 18 18 18 18 18 18 18 18 18 18 18 18 18 18 18 18 18 18 18 18 18 18 18 18 18 18 17 17
20 20 20 19 19 19 19 18 18 18 18 18 18 18 18 18 18 18 18 18 18 18 18 18 18 18 18 18 18 18 17 17 17 18 18 18 18 18 18 18 17 17 17
20 20 19 19 19 19 19 19 18 18 18 18 18 18 18 18 18 18 18 18 18 18 18 18 18 18 18 18 18 17 17 17 17 17 17 18 18 18 17 17 17 17 17
20 19 19 19 19 19 19 19 18 18 18 18 18 18 18 18 18 18 18 18 18 18 18 18 18 18 18 18 18 18 18 17 17 17 17 17 17 17 17 17 17 17 17
20 20 19 19 19 19 19 19 18 18 18 18 18 18 18 18 18 18 18 18 18 18 18 18 18 18 18 18 18 18 18 17 17 17 17 17 17 17 17 17 17 17 17
20 20 20 19 19 19 19 19 18 18 18 18 18 18 18 18 18 18 18 18 18 18 18 18 18 18 18 18 18 18 18 17 17 17 17 17 17 17 17 17 17 17 17
20 20 20 19 19 19 19 19 18 18 18 18 18 18 18 18 18 18 18 18 18 18 18 18 18 18 18 18 18 18 18 18 17 17 17 17 17 17 17 17 17 17 17
21 20 20 20 19 19 19 19 18 18 18 18 18 18 18 18 18 18 18 18 18 18 18 17 17 17 18 17 18 18 18 18 18 17 17 17 17 17 17 17 17 17 17
21 21 21 20 20 20 19 19 19 18 18 18 18 18 18 18 18 18 18 18 18 18 17 17 17 17 17 17 18 18 18 18 17 18 17 17 17 17 17 17 17 17 16
21 21 21 21 20 20 19 19 19 19 18 18 18 18 18 18 18 18 18 18 18 17 17 17 17 17 17 17 18 18 19 19 19 18 17 17 17 17 17 17 17 17 16
22 22 21 21 21 20 20 19 19 19 19 18 18 18 18 18 18 18 18 18 18 17 18 17 17 17 17 17 17 17 17 18 19 19 18 18 17 17 17 17 17 17 16
22 21 21 21 21 21 20 20 19 19 19 19 18 18 18 18 18 18 18 18 18 17 18 18 17 17 17 17 17 17 17 17 18 18 19 18 18 17 17 17 17 17 16
22 22 21 21 21 21 20 20 19 19 19 19 18 18 18 18 18 18 18 18 17 17 18 18 17 17 17 17 17 17 17 18 18 18 18 18 18 18 17 17 17 16 16
Wind_Speed
6 8 10 8 9 11 12 11 11 11 11 10 10 10 10 10 10 10 10 11 11 11 11 12 12 12 12 12 12 12 12 11 11 11 11 11 10 10 10 10 9 10 13
8 10 11 9 10 11 11 11 11 11 10 10 10 10 10 10 10 9 10 10 10 10 10 11 11 11 10 10 11 11 11 11 11 10 10 11 10 9 9 7 5 10 12
9 11 12 10 10 11 11 11 11 10 10 9 9 9 9 9 9 9 9 10 10 10 11 10 10 10 10 10 10 10 10 10 9 9 8 8 10 10 8 8 10 11 11
9 10 11 12 11 10 10 10 10 10 9 9 9 9 9 9 9 9 9 10 10 10 10 10 10 10 9 10 10 9 9 8 7 7 6 7 9 11 9 9 9 10 10
10 11 13 11 10 10 10 10 9 9 9 9 9 9 8 8 8 9 9 9 9 10 9 9 9 9 9 9 8 8 8 7 5 5 5 6 8 11 9 9 9 9 9
10 11 13 11 10 9 9 9 8 8 8 8 9 9 8 8 8 8 8 8 8 8 9 9 8 8 8 8 7 7 6 5 6 5 5 5 7 10 8 8 8 8 9
10 10 12 10 9 8 8 7 7 7 7 8 8 8 8 7 7 7 8 8 7 8 8 8 8 7 7 7 6 6 5 4 3 4 5 5 8 9 8 8 8 8 8
10 10 11 10 8 7 7 6 6 6 6 7 7 7 7 7 7 7 7 8 7 7 7 7 7 7 7 6 6 5 4 4 4 4 4 6 10 9 8 8 8 8 8
9 8 9 10 9 8 7 6 6 6 6 6 6 7 7 8 8 7 7 7 7 7 7 7 7 7 6 6 5 5 4 3 2 4 4 6 9 8 7 8 8 7 7
8 7 7 7 7 7 8 8 6 6 6 6 7 7 7 7 8 8 8 7 6 6 6 6 7 7 6 6 5 4 4 5 3 4 4 8 9 7 7 7 7 7 7
7 6 6 6 6 5 6 8 7 8 8 7 7 8 6 5 6 7 7 7 6 6 6 6 6 7 7 7 6 5 5 3 3 3 5 11 8 7 7 6 6 6 6
8 7 6 5 5 5 5 6 5 6 6 5 5 5 5 5 4 5 8 7 6 6 6 6 6 8 7 6 8 7 3 2 3 3 8 10 7 6 6 6 6 6 6
8 7 6 6 5 4 4 4 4 4 5 5 6 5 5 4 4 4 5 7 7 7 5 7 6 4 3 3 3 3 2 2 2 3 8 8 6 6 6 6 6 6 5
8 7 6 6 5 4 3 3 3 3 4 4 5 5 4 3 3 3 2 3 4 4 3 3 3 3 3 3 2 2 2 2 3 4 7 7 5 5 5 6 6 5 5
7 7 6 6 5 4 3 2 3 3 3 5 4 4 3 3 3 3 2 2 3 3 4 3 3 4 4 3 3 3 2 2 2 2 6 7 6 5 5 6 5 5 5
7 7 6 6 6 5 4 2 2 3 3 4 4 3 3 2 3 3 3 2 2 2 2 2 3 3 3 3 2 3 2 2 2 2 3 7 8 6 5 5 5 5 5
8 7 6 7 6 5 4 4 3 3 3 3 3 4 2 3 3 2 2 2 2 3 3 3 3 3 3 3 3 3 2 2 2 2 2 3 6 8 6 5 4 5 5
8 8 7 6 7 6 5 4 3 3 3 3 3 4 3 3 3 2 2 2 2 2 3 3 2 2 2 2 2 2 2 2 2 2 2 2 2 4 7 6 4 4 4
8 8 8 7 7 6 5 4 4 3 3 3 3 3 4 3 3 2 2 2 2 1 1 1 2 2 2 1 2 2 2 2 2 2 2 2 2 2 3 7 6 4 3
9 9 9 8 7 7 6 4 3 3 3 3 3 3 3 3 3 1 3 2 1 1 1 2 2 1 1 2 1 2 2 2 2 2 2 2 3 3 2 2 4 6 6
10 10 10 9 8 7 6 5 5 4 4 4 3 3 3 3 3 1 1 2 1 1 1 2 1 2 1 1 2 2 2 3 3 3 2 1 2 2 2 2 2 2 4
12 11 11 10 10 9 6 5 4 4 4 3 3 3 3 3 3 3 2 2 2 2 2 2 1 1 1 1 2 2 2 3 3 2 2 2 2 2 3 3 2 2 2
13 13 11 11 10 9 8 6 5 5 4 4 4 4 3 3 3 2 2 1 1 2 2 2 2 2 1 1 1 2 2 1 2 3 2 2 2 2 2 1 2 2 2
14 13 12 11 11 10 9 8 8 6 5 5 4 4 4 4 4 4 3 2 1 1 2 2 2 2 2 2 1 1 3 3 2 1 3 2 2 2 2 2 2 2 2
13 12 12 12 11 10 10 9 8 7 6 5 5 5 5 5 4 4 4 3 2 2 1 1 2 2 2 2 2 1 1 1 3 3 1 1 1 2 1 2 2 2 2
13 13 12 12 11 11 10 10 9 7 6 6 6 5 5 5 5 5 4 3 3 2 2 2 3 3 2 2 2 2 2 2 2 2 2 3 2 2 2 2 2 2 3
Wind_Direction
128 123 121 118 114 118 119 119 120 119 118 119 120 117 115 117 119 124 125 125 123 121 120 120 120 120 121 122 121 121 121 122 123 125 123 121 121 123 125 133 147 131 125
125 123 120 117 112 115 115 114 115 115 116 119 122 121 118 115 114 119 127 128 125 124 126 121 123 123 124 122 120 119 120 123 124 128 132 131 127 126 127 127 108 115 125
124 124 127 119 115 114 112 111 112 115 117 120 122 121 119 117 116 119 128 130 127 124 125 123 123 123 122 119 117 116 117 121 126 139 158 142 127 126 125 120 117 126 130
123 125 121 118 118 115 111 109 110 114 115 117 119 118 121 121 117 117 119 127 129 128 126 125 124 124 123 121 118 117 119 122 134 172 165 128 123 120 123 124 128 131 134
123 121 117 121 118 115 112 109 109 111 112 113 116 116 118 120 118 119 118 122 127 129 128 127 127 127 126 123 122 122 122 129 157 203 127 118 118 123 128 132 135 137 139
124 122 116 118 117 114 112 112 111 110 112 115 116 112 112 115 118 121 122 120 124 129 128 129 131 130 127 126 126 127 127 146 195 151 128 133 122 126 136 141 141 142 142
124 122 119 117 116 113 112 113 115 116 118 119 117 115 112 113 117 123 124 121 120 124 128 131 131 131 131 129 128 129 133 177 191 134 134 129 114 128 143 146 146 146 148
123 122 121 123 121 118 123 125 125 126 125 125 123 124 119 117 122 127 123 120 117 122 126 128 132 135 136 136 137 138 150 225 170 138 132 113 110 131 142 146 148 151 153
123 124 126 132 133 133 129 126 125 127 122 125 128 124 120 118 121 127 126 123 121 124 127 132 134 138 139 137 137 140 161 245 210 143 138 116 122 139 145 148 148 151 155
126 124 121 127 129 135 133 126 122 125 126 127 125 121 124 134 137 141 145 134 132 129 130 134 136 136 136 137 137 141 171 216 193 148 124 113 125 139 146 152 156 159 159
132 131 126 127 130 130 122 124 136 141 140 147 138 137 151 143 137 147 122 129 135 132 132 137 142 145 151 154 153 158 192 199 142 128 103 106 128 142 150 154 161 163 165
143 139 136 135 132 128 121 127 137 137 134 133 124 138 136 130 135 129 133 146 145 146 147 143 154 171 185 157 155 177 177 155 157 133 108 115 131 147 157 161 165 168 173
145 142 144 138 136 129 124 125 119 119 121 126 121 127 128 139 140 141 143 148 153 162 147 141 164 161 141 116 134 144 130 147 114 102 107 124 137 153 158 160 166 172 179
150 150 148 145 140 132 123 117 128 123 121 115 119 133 135 138 134 122 132 129 146 136 121 123 126 125 119 128 141 124 130 120 106 97 107 124 140 158 165 170 171 182 189
157 157 154 150 143 144 140 145 128 128 124 122 123 122 131 138 132 128 118 124 135 133 145 136 123 126 132 135 132 129 109 92 103 122 123 131 140 154 164 172 180 188 195
167 163 157 162 158 158 154 146 129 128 126 122 121 116 129 122 117 126 129 132 134 140 124 134 130 136 138 126 133 137 146 150 151 176 147 146 153 157 159 167 178 184 196
173 170 167 169 163 164 161 157 149 152 140 128 125 122 129 128 125 137 130 146 122 136 146 148 134 143 152 147 147 151 155 163 157 172 180 163 155 158 160 172 189 197 202
179 175 178 177 167 165 167 162 153 149 138 141 142 135 133 125 140 148 131 119 122 153 153 141 152 144 141 150 147 155 149 153 166 180 180 175 165 157 161 167 182 193 202
185 181 181 183 174 171 164 165 163 152 152 156 153 147 138 138 136 145 115 103 159 146 132 144 119 147 155 158 173 159 160 165 173 179 177 180 170 184 165 156 174 187 196
184 184 184 184 180 177 171 170 171 165 170 168 161 144 151 147 140 142 138 133 165 134 116 94 122 129 179 189 193 143 163 163 172 161 196 186 186 189 188 181 184 181 183
186 186 188 189 180 183 184 186 181 179 178 168 167 151 167 161 152 168 134 136 165 120 114 139 164 165 194 182 185 164 165 177 168 170 199 204 185 194 194 201 226 220 172
189 189 189 192 189 191 188 188 186 176 177 172 169 157 182 179 180 172 155 167 137 131 138 145 185 221 197 214 240 213 187 169 184 170 184 199 211 207 206 197 190 205 273
193 193 193 193 190 193 187 183 176 168 177 175 179 179 187 193 193 180 158 153 155 183 150 171 189 205 217 221 274 282 274 198 153 165 181 177 203 231 231 223 212 201 222
196 193 192 190 190 188 187 191 187 188 188 185 191 186 185 191 190 174 165 157 182 174 154 200 167 222 228 228 220 290 320 342 282 179 181 174 196 223 238 259 242 205 218
193 189 188 187 187 186 189 191 196 200 194 187 187 181 190 183 189 183 172 175 189 202 175 204 178 230 228 246 252 238 245 243 269 278 250 229 214 222 231 256 276 261 241
191 188 186 182 185 184 187 190 196 197 197 192 190 185 191 185 189 186 186 185 191 186 182 195 197 202 236 251 268 266 259 267 270 274 272 257 258 244 237 254 268 277 262
Height
1524 1523 1522 1522 1520 1519 1523 1526 1528 1529 1530 1531 1532 1533 1534 1535 1536 1537 1538 1539 1540 1541 1542 1544 1545 1546 1547 1549 1550 1552 1553 1554 1555 1556 1558 1559 1560 1561 1561 1562 1563 1564 1564
1525 1524 1524 1524 1525 1525 1527 1529 1530 1531 1532 1533 1534 1535 1536 1537 1538 1538 1539 1540 1541 1543 1544 1545 1547 1548 1549 1550 1552 1553 1554 1555 1557 1558 1559 1560 1561 1562 1562 1563 1564 1565 1565
1526 1526 1526 1527 1528 1529 1530 1531 1532 1533 1534 1535 1536 1537 1537 1538 1539 1540 1540 1542 1543 1544 1545 1546 1548 1549 1551 1552 1553 1554 1556 1557 1558 1559 1560 1562 1562 1562 1563 1564 1564 1565 1566
1527 1528 1529 1529 1530 1531 1532 1533 1534 1535 1536 1537 1538 1538 1539 1540 1541 1541 1542 1543 1544 1546 1547 1548 1549 1551 1552 1553 1554 1556 1557 1558 1559 1561 1563 1564 1564 1564 1564 1565 1565 1566 1567
1529 1530 1530 1531 1532 1533 1534 1535 1536 1537 1538 1538 1539 1540 1541 1541 1542 1543 1543 1545 1546 1547 1548 1550 1551 1552 1554 1555 1556 1557 1558 1559 1560 1562 1564 1565 1565 1564 1565 1566 1566 1567 1568
1531 1532 1532 1533 1534 1535 1536 1537 1538 1539 1539 1540 1541 1541 1542 1543 1544 1544 1545 1546 1547 1549 1550 1551 1552 1554 1555 1556 1557 1558 1559 1560 1562 1564 1565 1566 1566 1565 1566 1566 1567 1568 1568
1533 1535 1535 1535 1536 1537 1537 1538 1539 1540 1540 1541 1542 1542 1543 1544 1545 1546 1547 1547 1549 1550 1551 1552 1553 1555 1556 1557 1558 1559 1560 1561 1564 1565 1565 1566 1565 1565 1566 1567 1567 1568 1569
1535 1537 1536 1537 1538 1538 1538 1539 1540 1540 1541 1542 1543 1543 1544 1545 1546 1547 1548 1549 1550 1551 1552 1553 1554 1556 1557 1558 1559 1560 1561 1562 1564 1566 1566 1566 1565 1565 1566 1567 1568 1569 1569
1537 1538 1539 1539 1539 1539 1539 1540 1541 1541 1542 1543 1543 1544 1545 1546 1547 1548 1549 1550 1551 1552 1553 1554 1555 1556 1557 1558 1559 1561 1561 1562 1565 1566 1566 1566 1565 1566 1566 1567 1568 1569 1570
1539 1540 1540 1541 1541 1541 1541 1541 1541 1542 1543 1543 1544 1545 1546 1547 1548 1549 1550 1551 1552 1553 1554 1555 1556 1557 1558 1559 1560 1561 1562 1563 1565 1566 1567 1566 1565 1566 1566 1567 1568 1569 1570
1540 1541 1542 1542 1542 1543 1543 1542 1542 1542 1543 1544 1545 1545 1547 1549 1550 1551 1552 1552 1553 1554 1555 1556 1557 1558 1559 1560 1561 1562 1563 1565 1566 1567 1566 1565 1565 1566 1566 1567 1568 1569 1570
1541 1542 1543 1543 1543 1543 1543 1543 1543 1544 1544 1545 1546 1547 1549 1549 1551 1552 1552 1553 1554 1555 1556 1557 1558 1559 1560 1562 1562 1563 1564 1565 1566 1567 1566 1565 1566 1566 1567 1567 1568 1569 1569
1542 1543 1544 1544 1544 1544 1544 1544 1544 1545 1545 1546 1547 1548 1549 1550 1552 1552 1554 1554 1555 1556 1558 1558 1559 1560 1561 1562 1563 1564 1565 1566 1566 1567 1566 1565 1566 1566 1566 1567 1567 1568 1569
1542 1543 1544 1545 1545 1545 1545 1545 1546 1547 1547 1548 1548 1549 1550 1551 1552 1553 1554 1555 1556 1558 1558 1559 1560 1560 1561 1562 1563 1564 1564 1565 1566 1566 1565 1565 1566 1566 1566 1567 1567 1567 1568
1543 1544 1545 1545 1545 1545 1545 1546 1547 1548 1549 1549 1549 1550 1551 1552 1553 1554 1555 1555 1557 1558 1559 1559 1560 1560 1561 1562 1563 1563 1564 1565 1565 1566 1566 1565 1566 1566 1566 1566 1566 1567 1567
1543 1544 1545 1545 1545 1546 1546 1547 1548 1549 1549 1550 1551 1551 1552 1553 1554 1555 1555 1555 1557 1558 1559 1559 1560 1561 1561 1562 1563 1563 1564 1564 1564 1565 1566 1565 1565 1565 1565 1566 1566 1566 1566
1542 1544 1545 1545 1546 1547 1548 1548 1549 1550 1551 1551 1552 1552 1552 1554 1554 1555 1556 1556 1556 1557 1558 1559 1560 1561 1561 1562 1562 1563 1564 1564 1564 1565 1566 1566 1566 1565 1565 1565 1565 1565 1565
1542 1543 1544 1546 1547 1547 1548 1549 1550 1551 1551 1552 1552 1553 1553 1554 1554 1555 1556 1557 1556 1557 1558 1559 1560 1561 1561 1562 1562 1563 1563 1563 1564 1564 1565 1565 1566 1566 1565 1564 1564 1564 1564
1540 1542 1543 1545 1546 1547 1548 1549 1550 1551 1551 1552 1553 1553 1553 1554 1554 1555 1556 1556 1556 1557 1558 1559 1560 1561 1561 1562 1562 1562 1563 1563 1563 1564 1564 1565 1565 1565 1565 1564 1563 1563 1563
1539 1540 1542 1544 1545 1546 1547 1548 1549 1550 1551 1552 1553 1553 1554 1554 1555 1555 1556 1556 1557 1558 1558 1558 1559 1559 1560 1561 1562 1562 1562 1562 1562 1563 1564 1564 1564 1564 1564 1564 1563 1563 1562
1537 1539 1541 1542 1543 1545 1547 1548 1549 1550 1551 1552 1553 1553 1554 1554 1555 1555 1556 1556 1556 1557 1557 1558 1559 1559 1560 1560 1561 1561 1562 1562 1562 1562 1563 1563 1563 1563 1563 1563 1563 1563 1562
1535 1537 1539 1540 1542 1544 1545 1547 1548 1549 1551 1552 1553 1553 1554 1554 1555 1555 1555 1556 1556 1556 1556 1557 1558 1559 1559 1560 1561 1561 1561 1562 1561 1562 1562 1562 1562 1562 1563 1562 1562 1561 1561
1532 1534 1537 1538 1540 1542 1544 1545 1547 1548 1550 1551 1552 1553 1553 1554 1554 1554 1555 1555 1555 1556 1556 1556 1557 1558 1559 1559 1560 1561 1560 1560 1561 1561 1561 1561 1561 1561 1561 1561 1561 1560 1560
1529 1532 1534 1536 1538 1540 1542 1544 1546 1547 1549 1550 1551 1552 1552 1553 1553 1554 1554 1554 1555 1555 1555 1556 1556 1557 1558 1559 1559 1559 1560 1559 1560 1560 1560 1560 1560 1560 1560 1560 1560 1559 1558
1527 1529 1531 1533 1535 1538 1540 1542 1544 1546 1547 1549 1549 1550 1551 1552 1552 1553 1553 1553 1553 1554 1554 1554 1555 1556 1557 1558 1559 1559 1559 1559 1559 1559 1559 1559 1559 1559 1559 1559 1559 1558 1557
1524 1526 1528 1530 1532 1535 1537 1540 1542 1544 1545 1547 1548 1549 1550 1551 1551 1551 1552 1552 1552 1553 1553 1553 1554 1555 1555 1556 1557 1558 1558 1558 1558 1558 1558 1558 1557 1558 1557 1557 1557 1556 1556